Year,Month,Day,Hour,Minute,Value (Times are PST for barometer in hPa)
2017,01,19,00,00,990.79
2017,01,19,00,01,990.79
2017,01,19,00,02,990.79
2017,01,19,00,03,990.82
2017,01,19,00,04,990.86
2017,01,19,00,05,990.82
2017,01,19,00,06,990.79
2017,01,19,00,07,990.89
2017,01,19,00,08,990.89
2017,01,19,00,09,990.89
2017,01,19,00,10,990.86
2017,01,19,00,11,990.86
2017,01,19,00,12,990.86
2017,01,19,00,13,990.89
2017,01,19,00,14,990.86
2017,01,19,00,15,990.86
2017,01,19,00,16,990.93
2017,01,19,00,17,990.93
2017,01,19,00,18,990.99
2017,01,19,00,19,990.93
2017,01,19,00,20,990.89
2017,01,19,00,21,990.89
2017,01,19,00,22,990.93
2017,01,19,00,23,990.99
2017,01,19,00,24,990.96
2017,01,19,00,25,990.93
2017,01,19,00,26,990.96
2017,01,19,00,27,990.96
2017,01,19,00,28,990.99
2017,01,19,00,29,990.99
2017,01,19,00,30,991.03
2017,01,19,00,31,991.06
2017,01,19,00,32,991.13
2017,01,19,00,33,991.13
2017,01,19,00,34,991.16
2017,01,19,00,35,991.13
2017,01,19,00,36,991.16
2017,01,19,00,37,991.20
2017,01,19,00,38,991.26
2017,01,19,00,39,991.30
2017,01,19,00,40,991.30
2017,01,19,00,41,991.33
2017,01,19,00,42,991.37
2017,01,19,00,43,991.37
2017,01,19,00,44,991.37
2017,01,19,00,45,991.33
2017,01,19,00,46,991.30
2017,01,19,00,47,991.33
2017,01,19,00,48,991.33
2017,01,19,00,49,991.33
2017,01,19,00,50,991.33
2017,01,19,00,51,991.37
2017,01,19,00,52,991.37
2017,01,19,00,53,991.40
2017,01,19,00,54,991.40
2017,01,19,00,55,991.40
2017,01,19,00,56,991.43
2017,01,19,00,57,991.43
2017,01,19,00,58,991.43
2017,01,19,00,59,991.40
2017,01,19,01,00,991.40
2017,01,19,01,01,991.43
2017,01,19,01,02,991.40
2017,01,19,01,03,991.43
2017,01,19,01,04,991.47
2017,01,19,01,05,991.57
2017,01,19,01,06,991.57
2017,01,19,01,07,991.53
2017,01,19,01,08,991.53
2017,01,19,01,09,991.57
2017,01,19,01,10,991.50
2017,01,19,01,11,991.47
2017,01,19,01,12,991.47
2017,01,19,01,13,991.47
2017,01,19,01,14,991.50
2017,01,19,01,15,991.57
2017,01,19,01,16,991.57
2017,01,19,01,17,991.60
2017,01,19,01,18,991.60
2017,01,19,01,19,991.64
2017,01,19,01,20,991.57
2017,01,19,01,21,991.60
2017,01,19,01,22,991.57
2017,01,19,01,23,991.60
2017,01,19,01,24,991.64
2017,01,19,01,25,991.64
2017,01,19,01,26,991.64
2017,01,19,01,27,991.67
2017,01,19,01,28,991.70
2017,01,19,01,29,991.67
2017,01,19,01,30,991.70
2017,01,19,01,31,991.70
2017,01,19,01,32,991.70
2017,01,19,01,33,991.74
2017,01,19,01,34,991.74
2017,01,19,01,35,991.74
2017,01,19,01,36,991.74
2017,01,19,01,37,991.74
2017,01,19,01,38,991.77
2017,01,19,01,39,991.74
2017,01,19,01,40,991.81
2017,01,19,01,41,991.77
2017,01,19,01,42,991.81
2017,01,19,01,43,991.84
2017,01,19,01,44,991.84
2017,01,19,01,45,991.87
2017,01,19,01,46,991.87
2017,01,19,01,47,991.91
2017,01,19,01,48,991.94
2017,01,19,01,49,991.94
2017,01,19,01,50,991.98
2017,01,19,01,51,992.01
2017,01,19,01,52,991.95
2017,01,19,01,53,992.01
2017,01,19,01,54,992.04
2017,01,19,01,55,992.04
2017,01,19,01,56,992.04
2017,01,19,01,57,992.11
2017,01,19,01,58,992.11
2017,01,19,01,59,992.11
2017,01,19,02,00,992.11
2017,01,19,02,01,992.11
2017,01,19,02,02,992.14
2017,01,19,02,03,992.18
2017,01,19,02,04,992.18
2017,01,19,02,05,992.21
2017,01,19,02,06,992.18
2017,01,19,02,07,992.21
2017,01,19,02,08,992.21
2017,01,19,02,09,992.21
2017,01,19,02,10,992.21
2017,01,19,02,11,992.25
2017,01,19,02,12,992.28
2017,01,19,02,13,992.25
2017,01,19,02,14,992.35
2017,01,19,02,15,992.31
2017,01,19,02,16,992.31
2017,01,19,02,17,992.31
2017,01,19,02,18,992.31
2017,01,19,02,19,992.31
2017,01,19,02,20,992.38
2017,01,19,02,21,992.38
2017,01,19,02,22,992.42
2017,01,19,02,23,992.38
2017,01,19,02,24,992.42
2017,01,19,02,25,992.45
2017,01,19,02,26,992.45
2017,01,19,02,27,992.45
2017,01,19,02,28,992.48
2017,01,19,02,29,992.58
2017,01,19,02,30,992.58
2017,01,19,02,31,992.62
2017,01,19,02,32,992.65
2017,01,19,02,33,992.65
2017,01,19,02,34,992.72
2017,01,19,02,35,992.75
2017,01,19,02,36,992.75
2017,01,19,02,37,992.79
2017,01,19,02,38,992.79
2017,01,19,02,39,992.82
2017,01,19,02,40,992.89
2017,01,19,02,41,992.82
2017,01,19,02,42,992.86
2017,01,19,02,43,992.86
2017,01,19,02,44,992.89
2017,01,19,02,45,992.89
2017,01,19,02,46,992.92
2017,01,19,02,47,992.96
2017,01,19,02,48,992.96
2017,01,19,02,49,992.96
2017,01,19,02,50,992.99
2017,01,19,02,51,993.03
2017,01,19,02,52,993.03
2017,01,19,02,53,993.03
2017,01,19,02,54,993.03
2017,01,19,02,55,993.06
2017,01,19,02,56,993.03
2017,01,19,02,57,993.06
2017,01,19,02,58,993.09
2017,01,19,02,59,993.09
2017,01,19,03,00,993.09
2017,01,19,03,01,993.09
2017,01,19,03,02,993.13
2017,01,19,03,03,993.19
2017,01,19,03,04,993.16
2017,01,19,03,05,993.16
2017,01,19,03,06,993.16
2017,01,19,03,07,993.19
2017,01,19,03,08,993.19
2017,01,19,03,09,993.23
2017,01,19,03,10,993.23
2017,01,19,03,11,993.19
2017,01,19,03,12,993.16
2017,01,19,03,13,993.26
2017,01,19,03,14,993.26
2017,01,19,03,15,993.36
2017,01,19,03,16,993.43
2017,01,19,03,17,993.43
2017,01,19,03,18,993.50
2017,01,19,03,19,993.47
2017,01,19,03,20,993.48
2017,01,19,03,21,993.63
2017,01,19,03,22,993.53
2017,01,19,03,23,993.50
2017,01,19,03,24,993.53
2017,01,19,03,25,993.57
2017,01,19,03,26,993.57
2017,01,19,03,27,993.60
2017,01,19,03,28,993.63
2017,01,19,03,29,993.60
2017,01,19,03,30,993.67
2017,01,19,03,31,993.70
2017,01,19,03,32,993.70
2017,01,19,03,33,993.74
2017,01,19,03,34,993.77
2017,01,19,03,35,993.77
2017,01,19,03,36,993.80
2017,01,19,03,37,993.77
2017,01,19,03,38,993.74
2017,01,19,03,39,993.80
2017,01,19,03,40,993.80
2017,01,19,03,41,993.87
2017,01,19,03,42,993.84
2017,01,19,03,43,993.84
2017,01,19,03,44,993.87
2017,01,19,03,45,993.94
2017,01,19,03,46,993.97
2017,01,19,03,47,993.97
2017,01,19,03,48,994.04
2017,01,19,03,49,994.01
2017,01,19,03,50,994.04
2017,01,19,03,51,994.07
2017,01,19,03,52,994.07
2017,01,19,03,53,994.11
2017,01,19,03,54,994.11
2017,01,19,03,55,994.11
2017,01,19,03,56,994.14
2017,01,19,03,57,994.18
2017,01,19,03,58,994.18
2017,01,19,03,59,994.18
2017,01,19,04,00,994.21
2017,01,19,04,01,994.24
2017,01,19,04,02,994.28
2017,01,19,04,03,994.24
2017,01,19,04,04,994.21
2017,01,19,04,05,994.21
2017,01,19,04,06,994.21
2017,01,19,04,07,994.24
2017,01,19,04,08,994.21
2017,01,19,04,09,994.21
2017,01,19,04,10,994.24
2017,01,19,04,11,994.28
2017,01,19,04,12,994.28
2017,01,19,04,13,994.24
2017,01,19,04,14,994.28
2017,01,19,04,15,994.28
2017,01,19,04,16,994.31
2017,01,19,04,17,994.35
2017,01,19,04,18,994.38
2017,01,19,04,19,994.35
2017,01,19,04,20,994.41
2017,01,19,04,21,994.35
2017,01,19,04,22,994.38
2017,01,19,04,23,994.41
2017,01,19,04,24,994.41
2017,01,19,04,25,994.41
2017,01,19,04,26,994.41
2017,01,19,04,27,994.41
2017,01,19,04,28,994.41
2017,01,19,04,29,994.41
2017,01,19,04,30,994.45
2017,01,19,04,31,994.48
2017,01,19,04,32,994.52
2017,01,19,04,33,994.52
2017,01,19,04,34,994.52
2017,01,19,04,35,994.55
2017,01,19,04,36,994.52
2017,01,19,04,37,994.62
2017,01,19,04,38,994.59
2017,01,19,04,39,994.64
2017,01,19,04,40,994.56
2017,01,19,04,41,994.65
2017,01,19,04,42,994.65
2017,01,19,04,43,994.55
2017,01,19,04,44,994.65
2017,01,19,04,45,994.62
2017,01,19,04,46,994.65
2017,01,19,04,47,994.62
2017,01,19,04,48,994.58
2017,01,19,04,49,994.65
2017,01,19,04,50,994.62
2017,01,19,04,51,994.65
2017,01,19,04,52,994.62
2017,01,19,04,53,994.65
2017,01,19,04,54,994.62
2017,01,19,04,55,994.65
2017,01,19,04,56,994.71
2017,01,19,04,57,994.63
2017,01,19,04,58,994.82
2017,01,19,04,59,994.72
2017,01,19,05,00,994.75
2017,01,19,05,01,994.72
2017,01,19,05,02,994.72
2017,01,19,05,03,994.68
2017,01,19,05,04,994.75
2017,01,19,05,05,994.75
2017,01,19,05,06,994.72
2017,01,19,05,07,994.72
2017,01,19,05,08,994.79
2017,01,19,05,09,994.79
2017,01,19,05,10,994.79
2017,01,19,05,11,994.79
2017,01,19,05,12,994.79
2017,01,19,05,13,994.85
2017,01,19,05,14,994.89
2017,01,19,05,15,994.82
2017,01,19,05,16,994.82
2017,01,19,05,17,994.85
2017,01,19,05,18,994.89
2017,01,19,05,19,994.85
2017,01,19,05,20,994.85
2017,01,19,05,21,994.89
2017,01,19,05,22,994.92
2017,01,19,05,23,994.96
2017,01,19,05,24,994.85
2017,01,19,05,25,994.92
2017,01,19,05,26,994.89
2017,01,19,05,27,994.92
2017,01,19,05,28,994.96
2017,01,19,05,29,994.96
2017,01,19,05,30,994.96
2017,01,19,05,31,994.96
2017,01,19,05,32,994.96
2017,01,19,05,33,994.99
2017,01,19,05,34,994.96
2017,01,19,05,35,995.02
2017,01,19,05,36,995.02
2017,01,19,05,37,994.96
2017,01,19,05,38,994.99
2017,01,19,05,39,994.96
2017,01,19,05,40,994.89
2017,01,19,05,41,994.92
2017,01,19,05,42,994.96
2017,01,19,05,43,994.99
2017,01,19,05,44,994.92
2017,01,19,05,45,994.96
2017,01,19,05,46,994.99
2017,01,19,05,47,995.02
2017,01,19,05,48,995.02
2017,01,19,05,49,995.09
2017,01,19,05,50,995.06
2017,01,19,05,51,995.09
2017,01,19,05,52,995.06
2017,01,19,05,53,995.12
2017,01,19,05,54,995.09
2017,01,19,05,55,995.12
2017,01,19,05,56,995.12
2017,01,19,05,57,995.19
2017,01,19,05,58,995.19
2017,01,19,05,59,995.16
2017,01,19,06,00,995.19
2017,01,19,06,01,995.23
2017,01,19,06,02,995.19
2017,01,19,06,03,995.12
2017,01,19,06,04,995.16
2017,01,19,06,05,995.16
2017,01,19,06,06,995.12
2017,01,19,06,07,995.16
2017,01,19,06,08,995.12
2017,01,19,06,09,995.12
2017,01,19,06,10,995.12
2017,01,19,06,11,995.19
2017,01,19,06,12,995.19
2017,01,19,06,13,995.23
2017,01,19,06,14,995.19
2017,01,19,06,15,995.19
2017,01,19,06,16,995.16
2017,01,19,06,17,995.16
2017,01,19,06,18,995.19
2017,01,19,06,19,995.19
2017,01,19,06,20,995.19
2017,01,19,06,21,995.23
2017,01,19,06,22,995.23
2017,01,19,06,23,995.29
2017,01,19,06,24,995.23
2017,01,19,06,25,995.26
2017,01,19,06,26,995.33
2017,01,19,06,27,995.33
2017,01,19,06,28,995.33
2017,01,19,06,29,995.29
2017,01,19,06,30,995.26
2017,01,19,06,31,995.33
2017,01,19,06,32,995.33
2017,01,19,06,33,995.33
2017,01,19,06,34,995.36
2017,01,19,06,35,995.29
2017,01,19,06,36,995.29
2017,01,19,06,37,995.33
2017,01,19,06,38,995.36
2017,01,19,06,39,995.36
2017,01,19,06,40,995.36
2017,01,19,06,41,995.43
2017,01,19,06,42,995.40
2017,01,19,06,43,995.43
2017,01,19,06,44,995.43
2017,01,19,06,45,995.40
2017,01,19,06,46,995.40
2017,01,19,06,47,995.40
2017,01,19,06,48,995.36
2017,01,19,06,49,995.36
2017,01,19,06,50,995.36
2017,01,19,06,51,995.36
2017,01,19,06,52,995.40
2017,01,19,06,53,995.40
2017,01,19,06,54,995.36
2017,01,19,06,55,995.40
2017,01,19,06,56,995.43
2017,01,19,06,57,995.43
2017,01,19,06,58,995.46
2017,01,19,06,59,995.53
2017,01,19,07,00,995.53
2017,01,19,07,01,995.60
2017,01,19,07,02,995.56
2017,01,19,07,03,995.60
2017,01,19,07,04,995.60
2017,01,19,07,05,995.60
2017,01,19,07,06,995.63
2017,01,19,07,07,995.63
2017,01,19,07,08,995.63
2017,01,19,07,09,995.70
2017,01,19,07,10,995.67
2017,01,19,07,11,995.73
2017,01,19,07,12,995.77
2017,01,19,07,13,995.73
2017,01,19,07,14,995.77
2017,01,19,07,15,995.77
2017,01,19,07,16,995.84
2017,01,19,07,17,995.77
2017,01,19,07,18,995.80
2017,01,19,07,19,995.80
2017,01,19,07,20,995.77
2017,01,19,07,21,995.77
2017,01,19,07,22,995.80
2017,01,19,07,23,995.80
2017,01,19,07,24,995.77
2017,01,19,07,25,995.80
2017,01,19,07,26,995.80
2017,01,19,07,27,995.84
2017,01,19,07,28,995.77
2017,01,19,07,29,995.84
2017,01,19,07,30,995.84
2017,01,19,07,31,995.80
2017,01,19,07,32,995.84
2017,01,19,07,33,995.84
2017,01,19,07,34,995.80
2017,01,19,07,35,995.87
2017,01,19,07,36,995.94
2017,01,19,07,37,995.94
2017,01,19,07,38,995.87
2017,01,19,07,39,995.90
2017,01,19,07,40,995.94
2017,01,19,07,41,995.94
2017,01,19,07,42,996.01
2017,01,19,07,43,996.01
2017,01,19,07,44,995.94
2017,01,19,07,45,996.01
2017,01,19,07,46,996.04
2017,01,19,07,47,996.01
2017,01,19,07,48,996.01
2017,01,19,07,49,996.01
2017,01,19,07,50,996.04
2017,01,19,07,51,996.01
2017,01,19,07,52,995.94
2017,01,19,07,53,995.94
2017,01,19,07,54,995.90
2017,01,19,07,55,995.90
2017,01,19,07,56,995.94
2017,01,19,07,57,996.01
2017,01,19,07,58,995.94
2017,01,19,07,59,996.04
2017,01,19,08,00,996.01
2017,01,19,08,01,996.04
2017,01,19,08,02,996.07
2017,01,19,08,03,996.07
2017,01,19,08,04,996.07
2017,01,19,08,05,996.14
2017,01,19,08,06,996.14
2017,01,19,08,07,996.11
2017,01,19,08,08,996.14
2017,01,19,08,09,996.14
2017,01,19,08,10,996.14
2017,01,19,08,11,996.17
2017,01,19,08,12,996.17
2017,01,19,08,13,996.24
2017,01,19,08,14,996.21
2017,01,19,08,15,996.21
2017,01,19,08,16,996.21
2017,01,19,08,17,996.21
2017,01,19,08,18,996.24
2017,01,19,08,19,996.21
2017,01,19,08,20,996.17
2017,01,19,08,21,996.17
2017,01,19,08,22,996.21
2017,01,19,08,23,996.24
2017,01,19,08,24,996.21
2017,01,19,08,25,996.24
2017,01,19,08,26,996.21
2017,01,19,08,27,996.24
2017,01,19,08,28,996.24
2017,01,19,08,29,996.24
2017,01,19,08,30,996.24
2017,01,19,08,31,996.21
2017,01,19,08,32,996.24
2017,01,19,08,33,996.28
2017,01,19,08,34,996.28
2017,01,19,08,35,996.31
2017,01,19,08,36,996.38
2017,01,19,08,37,996.31
2017,01,19,08,38,996.34
2017,01,19,08,39,996.34
2017,01,19,08,40,996.34
2017,01,19,08,41,996.34
2017,01,19,08,42,996.38
2017,01,19,08,43,996.38
2017,01,19,08,44,996.38
2017,01,19,08,45,996.38
2017,01,19,08,46,996.45
2017,01,19,08,47,996.41
2017,01,19,08,48,996.45
2017,01,19,08,49,996.45
2017,01,19,08,50,996.45
2017,01,19,08,51,996.48
2017,01,19,08,52,996.51
2017,01,19,08,53,996.48
2017,01,19,08,54,996.55
2017,01,19,08,55,996.55
2017,01,19,08,56,996.55
2017,01,19,08,57,996.51
2017,01,19,08,58,996.55
2017,01,19,08,59,996.55
2017,01,19,09,00,996.55
2017,01,19,09,01,996.58
2017,01,19,09,02,996.58
2017,01,19,09,03,996.58
2017,01,19,09,04,996.61
2017,01,19,09,05,996.61
2017,01,19,09,06,996.65
2017,01,19,09,07,996.65
2017,01,19,09,08,996.58
2017,01,19,09,09,996.61
2017,01,19,09,10,996.65
2017,01,19,09,11,996.61
2017,01,19,09,12,996.65
2017,01,19,09,13,996.68
2017,01,19,09,14,996.65
2017,01,19,09,15,996.68
2017,01,19,09,16,996.68
2017,01,19,09,17,996.68
2017,01,19,09,18,996.65
2017,01,19,09,19,996.68
2017,01,19,09,20,996.68
2017,01,19,09,21,996.68
2017,01,19,09,22,996.78
2017,01,19,09,23,996.72
2017,01,19,09,24,996.75
2017,01,19,09,25,996.78
2017,01,19,09,26,996.78
2017,01,19,09,27,996.82
2017,01,19,09,28,996.89
2017,01,19,09,29,996.85
2017,01,19,09,30,996.92
2017,01,19,09,31,996.89
2017,01,19,09,32,996.89
2017,01,19,09,33,996.89
2017,01,19,09,34,996.92
2017,01,19,09,35,996.95
2017,01,19,09,36,996.92
2017,01,19,09,37,996.92
2017,01,19,09,38,996.92
2017,01,19,09,39,996.92
2017,01,19,09,40,996.92
2017,01,19,09,41,996.92
2017,01,19,09,42,996.92
2017,01,19,09,43,996.99
2017,01,19,09,44,996.92
2017,01,19,09,45,996.95
2017,01,19,09,46,996.99
2017,01,19,09,47,996.89
2017,01,19,09,48,996.95
2017,01,19,09,49,996.92
2017,01,19,09,50,996.99
2017,01,19,09,51,996.99
2017,01,19,09,52,996.99
2017,01,19,09,53,996.95
2017,01,19,09,54,996.95
2017,01,19,09,55,996.95
2017,01,19,09,56,997.02
2017,01,19,09,57,997.02
2017,01,19,09,58,997.02
2017,01,19,09,59,996.99
2017,01,19,10,00,996.99
2017,01,19,10,01,996.99
2017,01,19,10,02,997.02
2017,01,19,10,03,996.95
2017,01,19,10,04,996.99
2017,01,19,10,05,996.95
2017,01,19,10,06,996.95
2017,01,19,10,07,996.99
2017,01,19,10,08,996.95
2017,01,19,10,09,996.95
2017,01,19,10,10,996.95
2017,01,19,10,11,996.99
2017,01,19,10,12,996.95
2017,01,19,10,13,996.99
2017,01,19,10,14,996.99
2017,01,19,10,15,997.02
2017,01,19,10,16,996.99
2017,01,19,10,17,997.02
2017,01,19,10,18,996.99
2017,01,19,10,19,997.02
2017,01,19,10,20,996.99
2017,01,19,10,21,997.05
2017,01,19,10,22,997.05
2017,01,19,10,23,997.05
2017,01,19,10,24,997.02
2017,01,19,10,25,997.02
2017,01,19,10,26,997.02
2017,01,19,10,27,997.05
2017,01,19,10,28,997.05
2017,01,19,10,29,997.05
2017,01,19,10,30,997.09
2017,01,19,10,31,997.09
2017,01,19,10,32,997.12
2017,01,19,10,33,997.09
2017,01,19,10,34,997.05
2017,01,19,10,35,997.09
2017,01,19,10,36,997.09
2017,01,19,10,37,997.05
2017,01,19,10,38,997.09
2017,01,19,10,39,997.09
2017,01,19,10,40,997.09
2017,01,19,10,41,997.05
2017,01,19,10,42,997.09
2017,01,19,10,43,997.09
2017,01,19,10,44,997.09
2017,01,19,10,45,997.09
2017,01,19,10,46,997.12
2017,01,19,10,47,997.12
2017,01,19,10,48,997.19
2017,01,19,10,49,997.16
2017,01,19,10,50,997.16
2017,01,19,10,51,997.19
2017,01,19,10,52,997.19
2017,01,19,10,53,997.19
2017,01,19,10,54,997.19
2017,01,19,10,55,997.19
2017,01,19,10,56,997.16
2017,01,19,10,57,997.16
2017,01,19,10,58,997.16
2017,01,19,10,59,997.12
2017,01,19,11,00,997.16
2017,01,19,11,01,997.12
2017,01,19,11,02,997.12
2017,01,19,11,03,997.19
2017,01,19,11,04,997.16
2017,01,19,11,05,997.12
2017,01,19,11,06,997.19
2017,01,19,11,07,997.12
2017,01,19,11,08,997.19
2017,01,19,11,09,997.22
2017,01,19,11,10,997.22
2017,01,19,11,11,997.26
2017,01,19,11,12,997.22
2017,01,19,11,13,997.19
2017,01,19,11,14,997.19
2017,01,19,11,15,997.19
2017,01,19,11,16,997.19
2017,01,19,11,17,997.22
2017,01,19,11,18,997.16
2017,01,19,11,19,997.19
2017,01,19,11,20,997.16
2017,01,19,11,21,997.19
2017,01,19,11,22,997.19
2017,01,19,11,23,997.19
2017,01,19,11,24,997.22
2017,01,19,11,25,997.12
2017,01,19,11,26,997.16
2017,01,19,11,27,997.19
2017,01,19,11,28,997.16
2017,01,19,11,29,997.16
2017,01,19,11,30,997.16
2017,01,19,11,31,997.19
2017,01,19,11,32,997.22
2017,01,19,11,33,997.19
2017,01,19,11,34,997.16
2017,01,19,11,35,997.12
2017,01,19,11,36,997.19
2017,01,19,11,37,997.19
2017,01,19,11,38,997.16
2017,01,19,11,39,997.16
2017,01,19,11,40,997.12
2017,01,19,11,41,997.22
2017,01,19,11,42,997.19
2017,01,19,11,43,997.16
2017,01,19,11,44,997.19
2017,01,19,11,45,997.19
2017,01,19,11,46,997.22
2017,01,19,11,47,997.26
2017,01,19,11,48,997.26
2017,01,19,11,49,997.16
2017,01,19,11,50,997.19
2017,01,19,11,51,997.22
2017,01,19,11,52,997.19
2017,01,19,11,53,997.22
2017,01,19,11,54,997.22
2017,01,19,11,55,997.19
2017,01,19,11,56,997.19
2017,01,19,11,57,997.19
2017,01,19,11,58,997.22
2017,01,19,11,59,997.22
2017,01,19,12,00,997.19
2017,01,19,12,01,997.26
2017,01,19,12,02,997.22
2017,01,19,12,03,997.19
2017,01,19,12,04,997.22
2017,01,19,12,05,997.22
2017,01,19,12,06,997.22
2017,01,19,12,07,997.26
2017,01,19,12,08,997.19
2017,01,19,12,09,997.22
2017,01,19,12,10,997.19
2017,01,19,12,11,997.19
2017,01,19,12,12,997.16
2017,01,19,12,13,997.16
2017,01,19,12,14,997.16
2017,01,19,12,15,997.16
2017,01,19,12,16,997.16
2017,01,19,12,17,997.16
2017,01,19,12,18,997.19
2017,01,19,12,19,997.16
2017,01,19,12,20,997.16
2017,01,19,12,21,997.12
2017,01,19,12,22,997.16
2017,01,19,12,23,997.19
2017,01,19,12,24,997.12
2017,01,19,12,25,997.12
2017,01,19,12,26,997.09
2017,01,19,12,27,997.09
2017,01,19,12,28,997.12
2017,01,19,12,29,997.12
2017,01,19,12,30,997.09
2017,01,19,12,31,997.09
2017,01,19,12,32,997.05
2017,01,19,12,33,997.09
2017,01,19,12,34,997.05
2017,01,19,12,35,997.09
2017,01,19,12,36,997.09
2017,01,19,12,37,997.05
2017,01,19,12,38,997.09
2017,01,19,12,39,996.99
2017,01,19,12,40,997.05
2017,01,19,12,41,996.99
2017,01,19,12,42,996.99
2017,01,19,12,43,996.99
2017,01,19,12,44,997.02
2017,01,19,12,45,997.05
2017,01,19,12,46,996.99
2017,01,19,12,47,996.99
2017,01,19,12,48,997.02
2017,01,19,12,49,997.02
2017,01,19,12,50,996.99
2017,01,19,12,51,997.02
2017,01,19,12,52,996.99
2017,01,19,12,53,996.99
2017,01,19,12,54,996.95
2017,01,19,12,55,996.99
2017,01,19,12,56,996.99
2017,01,19,12,57,996.99
2017,01,19,12,58,996.99
2017,01,19,12,59,996.99
2017,01,19,13,00,996.99
2017,01,19,13,01,996.92
2017,01,19,13,02,997.02
2017,01,19,13,03,996.95
2017,01,19,13,04,996.99
2017,01,19,13,05,996.99
2017,01,19,13,06,996.99
2017,01,19,13,07,996.92
2017,01,19,13,08,996.92
2017,01,19,13,09,996.92
2017,01,19,13,10,996.92
2017,01,19,13,11,996.99
2017,01,19,13,12,996.92
2017,01,19,13,13,996.95
2017,01,19,13,14,996.95
2017,01,19,13,15,996.89
2017,01,19,13,16,996.89
2017,01,19,13,17,996.95
2017,01,19,13,18,996.95
2017,01,19,13,19,996.92
2017,01,19,13,20,996.95
2017,01,19,13,21,996.89
2017,01,19,13,22,996.99
2017,01,19,13,23,996.92
2017,01,19,13,24,996.95
2017,01,19,13,25,996.92
2017,01,19,13,26,996.95
2017,01,19,13,27,996.92
2017,01,19,13,28,996.92
2017,01,19,13,29,996.92
2017,01,19,13,30,996.92
2017,01,19,13,31,996.95
2017,01,19,13,32,996.92
2017,01,19,13,33,996.89
2017,01,19,13,34,996.95
2017,01,19,13,35,996.92
2017,01,19,13,36,996.85
2017,01,19,13,37,996.82
2017,01,19,13,38,996.78
2017,01,19,13,39,996.78
2017,01,19,13,40,996.78
2017,01,19,13,41,996.78
2017,01,19,13,42,996.78
2017,01,19,13,43,996.82
2017,01,19,13,44,996.78
2017,01,19,13,45,996.72
2017,01,19,13,46,996.72
2017,01,19,13,47,996.75
2017,01,19,13,48,996.75
2017,01,19,13,49,996.75
2017,01,19,13,50,996.72
2017,01,19,13,51,996.75
2017,01,19,13,52,996.75
2017,01,19,13,53,996.75
2017,01,19,13,54,996.75
2017,01,19,13,55,996.75
2017,01,19,13,56,996.78
2017,01,19,13,57,996.75
2017,01,19,13,58,996.75
2017,01,19,13,59,996.75
2017,01,19,14,00,996.75
2017,01,19,14,01,996.72
2017,01,19,14,02,996.72
2017,01,19,14,03,996.75
2017,01,19,14,04,996.68
2017,01,19,14,05,996.68
2017,01,19,14,06,996.72
2017,01,19,14,07,996.68
2017,01,19,14,08,996.68
2017,01,19,14,09,996.61
2017,01,19,14,10,996.65
2017,01,19,14,11,996.65
2017,01,19,14,12,996.58
2017,01,19,14,13,996.58
2017,01,19,14,14,996.55
2017,01,19,14,15,996.48
2017,01,19,14,16,996.51
2017,01,19,14,17,996.48
2017,01,19,14,18,996.51
2017,01,19,14,19,996.55
2017,01,19,14,20,996.55
2017,01,19,14,21,996.51
2017,01,19,14,22,996.51
2017,01,19,14,23,996.51
2017,01,19,14,24,996.48
2017,01,19,14,25,996.51
2017,01,19,14,26,996.51
2017,01,19,14,27,996.51
2017,01,19,14,28,996.55
2017,01,19,14,29,996.58
2017,01,19,14,30,996.51
2017,01,19,14,31,996.51
2017,01,19,14,32,996.55
2017,01,19,14,33,996.51
2017,01,19,14,34,996.51
2017,01,19,14,35,996.48
2017,01,19,14,36,996.51
2017,01,19,14,37,996.51
2017,01,19,14,38,996.55
2017,01,19,14,39,996.51
2017,01,19,14,40,996.58
2017,01,19,14,41,996.51
2017,01,19,14,42,996.58
2017,01,19,14,43,996.51
2017,01,19,14,44,996.51
2017,01,19,14,45,996.55
2017,01,19,14,46,996.55
2017,01,19,14,47,996.55
2017,01,19,14,48,996.51
2017,01,19,14,49,996.51
2017,01,19,14,50,996.55
2017,01,19,14,51,996.51
2017,01,19,14,52,996.58
2017,01,19,14,53,996.58
2017,01,19,14,54,996.51
2017,01,19,14,55,996.55
2017,01,19,14,56,996.55
2017,01,19,14,57,996.55
2017,01,19,14,58,996.58
2017,01,19,14,59,996.61
2017,01,19,15,00,996.61
2017,01,19,15,01,996.61
2017,01,19,15,02,996.58
2017,01,19,15,03,996.61
2017,01,19,15,04,996.65
2017,01,19,15,05,996.65
2017,01,19,15,06,996.61
2017,01,19,15,07,996.65
2017,01,19,15,08,996.65
2017,01,19,15,09,996.65
2017,01,19,15,10,996.61
2017,01,19,15,11,996.61
2017,01,19,15,12,996.61
2017,01,19,15,13,996.58
2017,01,19,15,14,996.61
2017,01,19,15,15,996.65
2017,01,19,15,16,996.65
2017,01,19,15,17,996.61
2017,01,19,15,18,996.61
2017,01,19,15,19,996.61
2017,01,19,15,20,996.58
2017,01,19,15,21,996.55
2017,01,19,15,22,996.58
2017,01,19,15,23,996.58
2017,01,19,15,24,996.58
2017,01,19,15,25,996.58
2017,01,19,15,26,996.55
2017,01,19,15,27,996.55
2017,01,19,15,28,996.61
2017,01,19,15,29,996.61
2017,01,19,15,30,996.61
2017,01,19,15,31,996.61
2017,01,19,15,32,996.58
2017,01,19,15,33,996.58
2017,01,19,15,34,996.58
2017,01,19,15,35,996.58
2017,01,19,15,36,996.58
2017,01,19,15,37,996.65
2017,01,19,15,38,996.61
2017,01,19,15,39,996.58
2017,01,19,15,40,996.61
2017,01,19,15,41,996.65
2017,01,19,15,42,996.61
2017,01,19,15,43,996.61
2017,01,19,15,44,996.65
2017,01,19,15,45,996.61
2017,01,19,15,46,996.58
2017,01,19,15,47,996.61
2017,01,19,15,48,996.65
2017,01,19,15,49,996.58
2017,01,19,15,50,996.61
2017,01,19,15,51,996.58
2017,01,19,15,52,996.65
2017,01,19,15,53,996.68
2017,01,19,15,54,996.61
2017,01,19,15,55,996.58
2017,01,19,15,56,996.61
2017,01,19,15,57,996.58
2017,01,19,15,58,996.58
2017,01,19,15,59,996.58
2017,01,19,16,00,996.61
2017,01,19,16,01,996.68
2017,01,19,16,02,996.65
2017,01,19,16,03,996.68
2017,01,19,16,04,996.72
2017,01,19,16,05,996.72
2017,01,19,16,06,996.75
2017,01,19,16,07,996.75
2017,01,19,16,08,996.78
2017,01,19,16,09,996.75
2017,01,19,16,10,996.75
2017,01,19,16,11,996.72
2017,01,19,16,12,996.75
2017,01,19,16,13,996.72
2017,01,19,16,14,996.72
2017,01,19,16,15,996.72
2017,01,19,16,16,996.72
2017,01,19,16,17,996.68
2017,01,19,16,18,996.75
2017,01,19,16,19,996.75
2017,01,19,16,20,996.72
2017,01,19,16,21,996.72
2017,01,19,16,22,996.68
2017,01,19,16,23,996.72
2017,01,19,16,24,996.72
2017,01,19,16,25,996.78
2017,01,19,16,26,996.75
2017,01,19,16,27,996.72
2017,01,19,16,28,996.68
2017,01,19,16,29,996.68
2017,01,19,16,30,996.68
2017,01,19,16,31,996.75
2017,01,19,16,32,996.72
2017,01,19,16,33,996.72
2017,01,19,16,34,996.72
2017,01,19,16,35,996.72
2017,01,19,16,36,996.72